sat.trackr.live / text

‹ back to catalog

STARLINK-11727 [DTC]

NORAD 64123 · 2025-111A

PAYLOAD ACTIVE UNKNOWN

§ Identity

Operator
Country
US
Launch date
2025-05-24
Launch site
AFETR
Launch vehicle
Mass (kg)
RCS (m²)

Purposes: comms

External: N2YO · Heavens-Above · Gunter

§ Orbital elements

Epoch: 2026-05-24T17:21:26.478432Z

Period
91.67 min
Inclination
43.0017°
Eccentricity
0.0002300
Mean motion
15.70883240 rev/d
Perigee alt
354.8 km
Apogee alt
357.9 km
Semi-major
6,734.5 km
B*
1.2209e-3
RAAN
235.8657°
Arg perigee
271.1346°
Mean anomaly
88.9259°
Rev number
5,859

§ Raw data

STARLINK-11727 [DTC]1 64123U 25111A   26144.72322313  .00159550  00000+0  12209-2 0  99962 64123  43.0017 235.8657 0002300 271.1346  88.9259 15.70883240 58594

JSON: /api/v1/satellites/64123 · /tle

For live sub-satellite position, see the globe view (requires WebGL).

§ Visibility from observer

Set your observer location to see the next 7 days of passes ≥ 10°. The values pass through the URL so the page stays shareable.

No JS? Fill the form by hand. The geolocation button needs JavaScript.